Location: Recife
(8.0585°S, 34.8848°W)
Time: 22:09:29
(UTC-03:00)

A-11 Canister half - Pass Details

Date: 19 April 2026
Orbit: 1523 x 1685 km, 47.3° (Epoch: 12 May)

Event Time Altitude Azimuth Distance (km) Brightness Sun altitude
Rises 19:36:28 0° 221° (SW) 4,719 11.9 -35.2°
Reaches altitude 10° 19:39:30 10° 221° (SW) 3,750 11.3 -36.0°
Enters shadow 19:48:34 82° 245° (WSW) 1,609 8.9 -38.2°
Maximum altitude 19:49:03 87° 309° (NW) 1,602 - -38.3°
Drops below altitude 10° 19:58:56 10° 38° (NE) 3,864 - -40.7°
Sets 20:02:06 0° 39° (NE) 4,868 - -41.5°
